OPS 4682 DEB, 38397

Orbit data source: Space-Track

OPS 4682 DEB, 38397 is space debris in LEO originally from a launch on Sat, 03 Apr 1965 UTC launched from the Air Force Western Test Range (AFWTR). Debris objects in space refer to the collection of defunct objects orbiting the Earth. Examples of debris include non-operational satellites, rocket bodies, and fragments generated from explosions, collisions, or faulty payload assembly.

Loading next visibility...
Identifier
38397, 1965-027DA
Orbit
LEO
Country
Flag of USUS
Related business
Manufacturer
Unknown
Mission
Spacecraft
Bus & Motor
Unknown
Mass
Unknown
Launch date (UTC)
1965-04-03 (61 years ago)
Launch vehicle
Unknown
Launch site
Air Force Western Test Range (AFWTR)
Object type
Payload
Rocket body
Debris
Shape & HBR
Unknown shape, 0.1 m
Radar Cross Section
Small (<0.1 m²)

Expand to show TLE details & history
Last TLE update: 22 hours ago

TLE from 22 hours ago
0 OPS 4682 DEB
1 38397U 65027DA  26035.64596887 -.00000270  00000-0 -92076-3 0  9997
2 38397  90.2499  14.4928 0038145 245.9728 113.7399 12.99948159645635
Epoch: 2026-02-04T15:30Z
TLE epoch observation values (Epoch: 2026-02-04T15:30:11.710Z)
Latitude
-0.00009°
Longitude
7.13444°
Altitude
1,277.002 km
Speed
7.212 km/s
True Right ascension
00h 57m 58s
True Declination
0° 00' 00"
Sunlit
Object was in daylight at epoch
Visualization orbit readout
Latitude
Unknown
Longitude
Unknown
Altitude
Unknown
Speed
Unknown
Apparent Right ascension
Unknown
Apparent Declination
Unknown
Sunlit
N/A
Visualization observer readout
Local Sidereal Time
15:18:03
Azimuth
Unknown
Elevation
Unknown
Doppler factor
Unknown
Orbital elements
Apogee altitude
1,288.55 km
Perigee altitude
1,230.283 km
Semi-major axis
7,637.554 km
Eccentricity
0.00381
Inclination
90.2499°
RAAN
14.4928°
Arg. of periapsis
245.9728°
True anomaly
114.13925°
Mean anomaly
113.7399°
Eccentric anomaly
113.93965°
Mean motion
3.25171 °/min
Orbital period
110.71 mins
BSTAR
-0.00092076
Loading maneuver chart data...
Computing Atmospheric mass density...
Loading historical data...
Loading historical data...
Loading historical data...
Loading historical data...
Loading historical data...
Loading historical data...
Loading historical data...

Documentation

Showing up to 5 results
|